Time,TemperatureF,DewpointF,PressureIn,WindDirection,WindDirectionDegrees,WindSpeedMPH,WindSpeedGustMPH,Humidity,HourlyPrecipIn,Conditions,Clouds,dailyrainin,SoftwareType,DateUTC
2013-03-13 00:00:00,39.3,36.3,29.79,NW,323,2.0,3.0,89,0.00,,---,0.00,VWS V14.01,2013-03-13 04:00:00,
2013-03-13 00:02:00,39.2,36.2,29.79,NW,311,1.0,3.0,89,0.00,,---,0.00,VWS V14.01,2013-03-13 04:02:00,
2013-03-13 00:04:00,39.2,36.2,29.79,NW,311,0.0,2.0,89,0.00,,---,0.00,VWS V14.01,2013-03-13 04:04:00,
2013-03-13 00:07:00,39.1,36.1,29.80,NW,311,3.0,3.0,89,0.00,,---,0.00,VWS V14.01,2013-03-13 04:07:00,
2013-03-13 00:12:00,38.9,35.9,29.80,NW,311,0.0,3.0,89,0.00,,---,0.00,VWS V14.01,2013-03-13 04:12:00,
2013-03-13 00:18:00,38.6,35.6,29.80,NW,311,0.0,0.0,89,0.00,,---,0.00,VWS V14.01,2013-03-13 04:18:00,
2013-03-13 00:24:00,38.5,35.5,29.80,NNW,329,0.0,0.0,89,0.00,,---,0.00,VWS V14.01,2013-03-13 04:24:00,
2013-03-13 00:29:00,38.5,35.5,29.80,NNW,329,0.0,0.0,89,0.00,,---,0.00,VWS V14.01,2013-03-13 04:29:00,
2013-03-13 00:34:00,38.3,35.3,29.80,NW,318,0.0,3.0,89,0.00,,---,0.00,VWS V14.01,2013-03-13 04:34:00,
2013-03-13 00:39:00,38.0,35.0,29.81,North,350,0.0,0.0,89,0.00,,---,0.00,VWS V14.01,2013-03-13 04:39:00,
2013-03-13 00:44:00,38.0,35.0,29.81,NNW,339,0.0,1.0,89,0.00,,---,0.00,VWS V14.01,2013-03-13 04:44:00,
2013-03-13 00:49:00,37.9,35.0,29.81,NNW,339,0.0,0.0,89,0.00,,---,0.00,VWS V14.01,2013-03-13 04:49:00,
2013-03-13 00:54:00,37.8,34.9,29.80,NNW,335,1.0,2.0,89,0.00,,---,0.00,VWS V14.01,2013-03-13 04:54:00,
2013-03-13 00:59:00,37.6,34.7,29.81,NNW,336,0.0,0.0,89,0.00,,---,0.00,VWS V14.01,2013-03-13 04:59:00,
2013-03-13 01:04:00,37.5,34.6,29.81,NNW,335,1.0,1.0,89,0.00,,---,0.00,VWS V14.01,2013-03-13 05:04:00,
2013-03-13 01:10:00,37.3,34.4,29.81,NNW,335,0.0,0.0,89,0.00,,---,0.00,VWS V14.01,2013-03-13 05:10:00,
2013-03-13 01:15:00,37.2,34.3,29.81,NNW,335,1.0,2.0,89,0.00,,---,0.00,VWS V14.01,2013-03-13 05:15:00,
2013-03-13 01:20:00,37.2,34.3,29.81,NW,306,0.0,1.0,89,0.00,,---,0.00,VWS V14.01,2013-03-13 05:20:00,
2013-03-13 01:25:00,37.2,34.0,29.82,NW,306,0.0,1.0,88,0.00,,---,0.00,VWS V14.01,2013-03-13 05:25:00,
2013-03-13 01:31:00,37.0,33.8,29.81,NW,306,1.0,2.0,88,0.00,,---,0.00,VWS V14.01,2013-03-13 05:31:00,
2013-03-13 01:37:00,37.0,33.8,29.82,NW,305,0.0,2.0,88,0.00,,---,0.00,VWS V14.01,2013-03-13 05:37:00,
2013-03-13 01:42:00,36.9,33.7,29.82,NW,305,0.0,0.0,88,0.00,,---,0.00,VWS V14.01,2013-03-13 05:42:00,
2013-03-13 01:48:00,36.8,33.6,29.82,NW,305,0.0,2.0,88,0.00,,---,0.00,VWS V14.01,2013-03-13 05:48:00,
2013-03-13 01:54:00,36.8,33.6,29.82,NW,305,0.0,2.0,88,0.00,,---,0.00,VWS V14.01,2013-03-13 05:54:00,
2013-03-13 01:59:00,36.6,33.1,29.82,NW,324,1.0,2.0,87,0.00,,---,0.00,VWS V14.01,2013-03-13 05:59:00,
2013-03-13 02:04:00,36.6,33.1,29.82,NW,324,1.0,2.0,87,0.00,,---,0.00,VWS V14.01,2013-03-13 06:04:00,
2013-03-13 02:09:00,36.6,33.1,29.82,NW,324,0.0,2.0,87,0.00,,---,0.00,VWS V14.01,2013-03-13 06:09:00,
2013-03-13 02:14:00,36.5,33.0,29.82,WNW,298,2.0,4.0,87,0.00,,---,0.00,VWS V14.01,2013-03-13 06:14:00,
2013-03-13 02:20:00,36.5,32.7,29.83,NNW,332,2.0,2.0,86,0.00,,---,0.00,VWS V14.01,2013-03-13 06:20:00,
2013-03-13 02:25:00,36.5,32.7,29.82,NW,324,3.0,3.0,86,0.00,,---,0.00,VWS V14.01,2013-03-13 06:25:00,
2013-03-13 02:30:00,36.6,32.8,29.83,NNW,339,0.0,4.0,86,0.00,,---,0.00,VWS V14.01,2013-03-13 06:30:00,
2013-03-13 02:36:00,36.6,32.5,29.82,North,360,2.0,2.0,85,0.00,,---,0.00,VWS V14.01,2013-03-13 06:36:00,
2013-03-13 02:42:00,36.6,32.5,29.82,NNW,331,0.0,2.0,85,0.00,,---,0.00,VWS V14.01,2013-03-13 06:42:00,
2013-03-13 02:47:00,36.8,32.4,29.82,NNW,343,1.0,2.0,84,0.00,,---,0.00,VWS V14.01,2013-03-13 06:47:00,
2013-03-13 02:52:00,36.6,32.2,29.82,NNW,331,2.0,2.0,84,0.00,,---,0.00,VWS V14.01,2013-03-13 06:52:00,
2013-03-13 02:58:00,36.6,31.9,29.82,NW,321,2.0,2.0,83,0.00,,---,0.00,VWS V14.01,2013-03-13 06:58:00,
2013-03-13 03:03:00,36.5,31.5,29.81,WNW,302,0.0,2.0,82,0.00,,---,0.00,VWS V14.01,2013-03-13 07:03:00,
2013-03-13 03:09:00,36.5,31.5,29.82,NNW,331,2.0,2.0,82,0.00,,---,0.00,VWS V14.01,2013-03-13 07:09:00,
2013-03-13 03:14:00,36.3,31.3,29.82,NW,317,5.0,5.0,82,0.00,,---,0.00,VWS V14.01,2013-03-13 07:14:00,
2013-03-13 03:19:00,36.3,31.0,29.82,NNE,12,2.0,3.0,81,0.00,,---,0.00,VWS V14.01,2013-03-13 07:19:00,
2013-03-13 03:24:00,36.2,30.9,29.82,WNW,297,1.0,2.0,81,0.00,,---,0.00,VWS V14.01,2013-03-13 07:24:00,
2013-03-13 03:29:00,36.2,30.6,29.82,NW,320,0.0,1.0,80,0.00,,---,0.00,VWS V14.01,2013-03-13 07:29:00,
2013-03-13 03:35:00,36.0,30.8,29.82,NW,319,0.0,0.0,81,0.00,,---,0.00,VWS V14.01,2013-03-13 07:35:00,
2013-03-13 03:40:00,35.9,30.6,29.83,NW,319,0.0,0.0,81,0.00,,---,0.00,VWS V14.01,2013-03-13 07:40:00,
2013-03-13 03:46:00,35.8,30.5,29.82,NW,319,0.0,2.0,81,0.00,,---,0.00,VWS V14.01,2013-03-13 07:46:00,
2013-03-13 03:53:00,35.5,30.3,29.82,NW,319,0.0,0.0,81,0.00,,---,0.00,VWS V14.01,2013-03-13 07:53:00,
2013-03-13 03:59:00,35.5,30.3,29.83,NNW,334,0.0,0.0,81,0.00,,---,0.00,VWS V14.01,2013-03-13 07:59:00,
2013-03-13 04:05:00,35.3,30.4,29.83,NNW,334,0.0,0.0,82,0.00,,---,0.00,VWS V14.01,2013-03-13 08:05:00,
2013-03-13 04:12:00,35.2,30.3,29.83,NNW,334,0.0,0.0,82,0.00,,---,0.00,VWS V14.01,2013-03-13 08:12:00,
2013-03-13 04:17:00,35.0,30.1,29.83,NNW,334,0.0,0.0,82,0.00,,---,0.00,VWS V14.01,2013-03-13 08:17:00,
2013-03-13 04:23:00,34.9,30.0,29.83,NNW,334,0.0,0.0,82,0.00,,---,0.00,VWS V14.01,2013-03-13 08:23:00,
2013-03-13 04:28:00,34.6,29.7,29.83,NNW,334,0.0,0.0,82,0.00,,---,0.00,VWS V14.01,2013-03-13 08:28:00,
2013-03-13 04:33:00,34.4,29.8,29.83,NNW,334,0.0,0.0,83,0.00,,---,0.00,VWS V14.01,2013-03-13 08:33:00,
2013-03-13 04:38:00,34.3,29.7,29.83,NNW,334,0.0,0.0,83,0.00,,---,0.00,VWS V14.01,2013-03-13 08:38:00,
2013-03-13 04:44:00,34.1,29.5,29.83,NNW,334,0.0,0.0,83,0.00,,---,0.00,VWS V14.01,2013-03-13 08:44:00,
2013-03-13 04:50:00,34.0,29.4,29.83,NNW,334,0.0,0.0,83,0.00,,---,0.00,VWS V14.01,2013-03-13 08:50:00,
2013-03-13 04:55:00,33.8,29.2,29.83,NNW,334,0.0,0.0,83,0.00,,---,0.00,VWS V14.01,2013-03-13 08:55:00,
2013-03-13 05:00:00,33.7,29.1,29.83,NNW,334,0.0,0.0,83,0.00,,---,0.00,VWS V14.01,2013-03-13 09:00:00,
2013-03-13 05:05:00,33.5,29.2,29.83,NNW,334,0.0,0.0,84,0.00,,---,0.00,VWS V14.01,2013-03-13 09:05:00,
2013-03-13 05:11:00,33.4,29.1,29.84,NNW,334,0.0,0.0,84,0.00,,---,0.00,VWS V14.01,2013-03-13 09:11:00,
2013-03-13 05:17:00,33.2,28.9,29.84,NNW,334,0.0,0.0,84,0.00,,---,0.00,VWS V14.01,2013-03-13 09:17:00,
2013-03-13 05:22:00,33.1,28.8,29.84,NNW,334,0.0,0.0,84,0.00,,---,0.00,VWS V14.01,2013-03-13 09:22:00,
2013-03-13 05:27:00,33.1,28.8,29.84,NNW,334,0.0,0.0,84,0.00,,---,0.00,VWS V14.01,2013-03-13 09:27:00,
2013-03-13 05:32:00,32.9,28.9,29.84,NNW,334,0.0,0.0,85,0.00,,---,0.00,VWS V14.01,2013-03-13 09:32:00,
2013-03-13 05:37:00,32.8,28.8,29.84,NNW,334,0.0,0.0,85,0.00,,---,0.00,VWS V14.01,2013-03-13 09:37:00,
2013-03-13 05:43:00,32.7,28.7,29.84,NNW,334,0.0,0.0,85,0.00,,---,0.00,VWS V14.01,2013-03-13 09:43:00,
2013-03-13 05:48:00,32.5,28.5,29.84,NNW,334,0.0,0.0,85,0.00,,---,0.00,VWS V14.01,2013-03-13 09:48:00,
2013-03-13 05:54:00,32.5,28.5,29.85,NNW,334,0.0,0.0,85,0.00,,---,0.00,VWS V14.01,2013-03-13 09:54:00,
2013-03-13 05:59:00,32.4,28.4,29.85,NNW,334,0.0,0.0,85,0.00,,---,0.00,VWS V14.01,2013-03-13 09:59:00,
2013-03-13 06:04:00,32.2,28.5,29.85,NNW,334,0.0,0.0,86,0.00,,---,0.00,VWS V14.01,2013-03-13 10:04:00,
2013-03-13 06:09:00,32.1,28.4,29.85,NNW,334,0.0,0.0,86,0.00,,---,0.00,VWS V14.01,2013-03-13 10:09:00,
2013-03-13 06:15:00,31.9,28.2,29.85,NNW,334,0.0,0.0,86,0.00,,---,0.00,VWS V14.01,2013-03-13 10:15:00,
2013-03-13 06:20:00,31.9,28.2,29.85,NNW,334,0.0,0.0,86,0.00,,---,0.00,VWS V14.01,2013-03-13 10:20:00,
2013-03-13 06:26:00,31.8,28.1,29.85,NNW,334,0.0,0.0,86,0.00,,---,0.00,VWS V14.01,2013-03-13 10:26:00,
2013-03-13 06:32:00,31.8,28.1,29.85,NNW,334,0.0,0.0,86,0.00,,---,0.00,VWS V14.01,2013-03-13 10:32:00,
2013-03-13 06:37:00,31.8,28.4,29.85,NNW,334,0.0,0.0,87,0.00,,---,0.00,VWS V14.01,2013-03-13 10:37:00,
2013-03-13 06:42:00,31.6,28.2,29.85,NNW,334,0.0,0.0,87,0.00,,---,0.00,VWS V14.01,2013-03-13 10:42:00,
2013-03-13 06:47:00,31.6,28.2,29.85,NNW,334,0.0,0.0,87,0.00,,---,0.00,VWS V14.01,2013-03-13 10:47:00,
2013-03-13 06:53:00,31.5,28.1,29.84,NNW,334,0.0,0.0,87,0.00,,---,0.00,VWS V14.01,2013-03-13 10:53:00,
2013-03-13 06:58:00,31.3,27.9,29.85,NNW,334,0.0,0.0,87,0.00,,---,0.00,VWS V14.01,2013-03-13 10:58:00,
2013-03-13 07:03:00,31.2,27.8,29.85,NNW,334,0.0,0.0,87,0.00,,---,0.00,VWS V14.01,2013-03-13 11:03:00,
2013-03-13 07:09:00,31.0,27.6,29.85,NNW,334,0.0,0.0,87,0.00,,---,0.00,VWS V14.01,2013-03-13 11:09:00,
2013-03-13 07:15:00,31.0,27.6,29.85,NNW,334,0.0,0.0,87,0.00,,---,0.00,VWS V14.01,2013-03-13 11:15:00,
2013-03-13 07:20:00,31.0,27.6,29.85,NNW,334,0.0,0.0,87,0.00,,---,0.00,VWS V14.01,2013-03-13 11:20:00,
2013-03-13 07:25:00,31.0,27.6,29.85,NNW,334,0.0,0.0,87,0.00,,---,0.00,VWS V14.01,2013-03-13 11:25:00,
2013-03-13 07:30:00,31.0,27.6,29.85,NNW,334,0.0,0.0,87,0.00,,---,0.00,VWS V14.01,2013-03-13 11:30:00,
2013-03-13 07:36:00,31.0,27.6,29.85,NNW,334,0.0,0.0,87,0.00,,---,0.00,VWS V14.01,2013-03-13 11:36:00,
2013-03-13 07:42:00,31.0,27.6,29.85,NNW,334,0.0,0.0,87,0.00,,---,0.00,VWS V14.01,2013-03-13 11:42:00,
2013-03-13 07:47:00,31.2,27.8,29.86,NNW,334,0.0,0.0,87,0.00,,---,0.00,VWS V14.01,2013-03-13 11:47:00,
2013-03-13 07:52:00,31.2,27.8,29.86,NNW,334,0.0,0.0,87,0.00,,---,0.00,VWS V14.01,2013-03-13 11:52:00,
2013-03-13 07:57:00,31.3,27.9,29.86,NNW,334,0.0,0.0,87,0.00,,---,0.00,VWS V14.01,2013-03-13 11:57:00,
2013-03-13 08:02:00,31.5,28.1,29.86,NNW,334,0.0,0.0,87,0.00,,---,0.00,VWS V14.01,2013-03-13 12:02:00,
2013-03-13 08:07:00,31.6,28.2,29.86,NNW,334,0.0,0.0,87,0.00,,---,0.00,VWS V14.01,2013-03-13 12:07:00,
2013-03-13 08:12:00,31.8,28.1,29.86,NNW,334,0.0,0.0,86,0.00,,---,0.00,VWS V14.01,2013-03-13 12:12:00,
2013-03-13 08:18:00,32.1,28.4,29.86,NNW,334,0.0,0.0,86,0.00,,---,0.00,VWS V14.01,2013-03-13 12:18:00,
2013-03-13 08:23:00,32.4,28.1,29.86,NNW,334,0.0,0.0,84,0.00,,---,0.00,VWS V14.01,2013-03-13 12:23:00,
2013-03-13 08:28:00,32.7,28.4,29.86,NNW,334,0.0,0.0,84,0.00,,---,0.00,VWS V14.01,2013-03-13 12:28:00,
2013-03-13 08:34:00,32.9,28.3,29.86,NNW,334,0.0,0.0,83,0.00,,---,0.00,VWS V14.01,2013-03-13 12:34:00,
2013-03-13 08:40:00,33.2,28.3,29.86,NNW,334,0.0,0.0,82,0.00,,---,0.00,VWS V14.01,2013-03-13 12:40:00,
2013-03-13 08:45:00,33.7,27.9,29.85,WNW,288,1.0,1.0,79,0.00,,---,0.00,VWS V14.01,2013-03-13 12:45:00,
2013-03-13 08:50:00,34.0,27.9,29.85,WNW,290,1.0,1.0,78,0.00,,---,0.00,VWS V14.01,2013-03-13 12:50:00,
2013-03-13 08:55:00,34.3,27.2,29.85,WNW,297,3.0,3.0,75,0.00,,---,0.00,VWS V14.01,2013-03-13 12:55:00,
2013-03-13 09:00:00,34.7,27.6,29.86,West,274,2.0,3.0,75,0.00,,---,0.00,VWS V14.01,2013-03-13 13:00:00,
2013-03-13 09:05:00,35.0,26.9,29.86,NNW,328,1.0,3.0,72,0.00,,---,0.00,VWS V14.01,2013-03-13 13:05:00,
2013-03-13 09:12:00,35.5,27.0,29.86,WNW,297,2.0,3.0,71,0.00,,---,0.00,VWS V14.01,2013-03-13 13:12:00,
2013-03-13 09:17:00,35.8,26.6,29.86,NW,306,0.0,3.0,69,0.00,,---,0.00,VWS V14.01,2013-03-13 13:17:00,
2013-03-13 09:23:00,36.0,26.5,29.86,NW,321,3.0,5.0,68,0.00,,---,0.00,VWS V14.01,2013-03-13 13:23:00,
2013-03-13 09:28:00,36.3,26.8,29.86,North,351,3.0,4.0,68,0.00,,---,0.00,VWS V14.01,2013-03-13 13:28:00,
2013-03-13 09:33:00,36.5,27.0,29.86,NNW,337,0.0,2.0,68,0.00,,---,0.00,VWS V14.01,2013-03-13 13:33:00,
2013-03-13 09:38:00,36.8,26.9,29.86,West,263,1.0,4.0,67,0.00,,---,0.00,VWS V14.01,2013-03-13 13:38:00,
2013-03-13 09:44:00,37.0,27.1,29.86,West,277,1.0,2.0,67,0.00,,---,0.00,VWS V14.01,2013-03-13 13:44:00,
2013-03-13 09:50:00,37.3,27.4,29.86,NW,321,2.0,2.0,67,0.00,,---,0.00,VWS V14.01,2013-03-13 13:50:00,
2013-03-13 09:56:00,37.6,26.5,29.86,NW,304,4.0,4.0,64,0.00,,---,0.00,VWS V14.01,2013-03-13 13:56:00,
2013-03-13 10:02:00,37.9,26.5,29.86,NNW,341,4.0,4.0,63,0.00,,---,0.00,VWS V14.01,2013-03-13 14:02:00,
2013-03-13 10:07:00,38.2,26.3,29.86,NW,320,4.0,4.0,62,0.00,,---,0.00,VWS V14.01,2013-03-13 14:07:00,
2013-03-13 10:13:00,38.3,26.8,29.86,NNW,331,1.0,6.0,63,0.00,,---,0.00,VWS V14.01,2013-03-13 14:13:00,
2013-03-13 10:19:00,38.6,26.3,29.85,NW,322,0.0,0.0,61,0.00,,---,0.00,VWS V14.01,2013-03-13 14:19:00,
2013-03-13 10:25:00,38.9,27.4,29.85,West,273,1.0,3.0,63,0.00,,---,0.00,VWS V14.01,2013-03-13 14:25:00,
2013-03-13 10:32:00,39.5,27.2,29.85,WSW,241,1.0,1.0,61,0.00,,---,0.00,VWS V14.01,2013-03-13 14:32:00,
2013-03-13 10:37:00,39.8,27.9,29.85,WSW,246,2.0,3.0,62,0.00,,---,0.00,VWS V14.01,2013-03-13 14:37:00,
2013-03-13 10:42:00,39.9,26.3,29.85,West,265,0.0,0.0,58,0.00,,---,0.00,VWS V14.01,2013-03-13 14:42:00,
2013-03-13 10:47:00,40.1,26.9,29.85,West,278,0.0,2.0,59,0.00,,---,0.00,VWS V14.01,2013-03-13 14:47:00,
2013-03-13 10:52:00,40.6,27.0,29.85,NW,304,0.0,3.0,58,0.00,,---,0.00,VWS V14.01,2013-03-13 14:52:00,
2013-03-13 10:57:00,40.9,26.9,29.84,West,272,3.0,6.0,57,0.00,,---,0.00,VWS V14.01,2013-03-13 14:57:00,
2013-03-13 11:03:00,41.5,27.0,29.84,West,279,0.0,4.0,56,0.00,,---,0.00,VWS V14.01,2013-03-13 15:03:00,
2013-03-13 11:08:00,41.8,26.4,29.84,WSW,257,3.0,4.0,54,0.00,,---,0.00,VWS V14.01,2013-03-13 15:08:00,
2013-03-13 11:13:00,41.9,26.5,29.84,WSW,244,1.0,5.0,54,0.00,,---,0.00,VWS V14.01,2013-03-13 15:13:00,
2013-03-13 11:18:00,42.2,27.2,29.84,West,267,1.0,2.0,55,0.00,,---,0.00,VWS V14.01,2013-03-13 15:18:00,
2013-03-13 11:23:00,42.6,26.7,29.84,West,279,1.0,4.0,53,0.00,,---,0.00,VWS V14.01,2013-03-13 15:23:00,
2013-03-13 11:28:00,42.9,27.4,29.84,WNW,288,4.0,4.0,54,0.00,,---,0.00,VWS V14.01,2013-03-13 15:28:00,
2013-03-13 11:34:00,43.3,26.9,29.84,West,267,0.0,5.0,52,0.00,,---,0.00,VWS V14.01,2013-03-13 15:34:00,
2013-03-13 11:39:00,43.5,26.6,29.84,NW,304,2.0,5.0,51,0.00,,---,0.00,VWS V14.01,2013-03-13 15:39:00,
2013-03-13 11:45:00,43.6,27.6,29.84,WNW,287,3.0,3.0,53,0.00,,---,0.00,VWS V14.01,2013-03-13 15:45:00,
2013-03-13 11:50:00,44.2,28.2,29.84,WNW,298,1.0,2.0,53,0.00,,---,0.00,VWS V14.01,2013-03-13 15:50:00,
2013-03-13 11:55:00,44.2,26.3,29.84,West,277,2.0,5.0,49,0.00,,---,0.00,VWS V14.01,2013-03-13 15:55:00,
2013-03-13 12:00:00,43.9,26.5,29.83,NW,309,2.0,4.0,50,0.00,,---,0.00,VWS V14.01,2013-03-13 16:00:00,
2013-03-13 12:05:00,43.9,27.0,29.83,NNW,347,3.0,5.0,51,0.00,,---,0.00,VWS V14.01,2013-03-13 16:05:00,
2013-03-13 12:10:00,44.5,28.5,29.83,NW,304,4.0,9.0,53,0.00,,---,0.00,VWS V14.01,2013-03-13 16:10:00,
2013-03-13 12:15:00,45.1,26.6,29.83,WNW,295,2.0,4.0,48,0.00,,---,0.00,VWS V14.01,2013-03-13 16:15:00,
2013-03-13 12:21:00,45.2,26.2,29.83,West,269,3.0,6.0,47,0.00,,---,0.00,VWS V14.01,2013-03-13 16:21:00,
2013-03-13 12:26:00,45.1,25.0,29.82,WNW,284,1.0,1.0,45,0.00,,---,0.00,VWS V14.01,2013-03-13 16:26:00,
2013-03-13 12:32:00,45.7,26.6,29.82,WNW,302,4.0,6.0,47,0.00,,---,0.00,VWS V14.01,2013-03-13 16:32:00,
2013-03-13 12:37:00,46.1,25.4,29.82,NNW,344,2.0,6.0,44,0.00,,---,0.00,VWS V14.01,2013-03-13 16:37:00,
2013-03-13 12:42:00,46.4,24.6,29.82,North,360,0.0,3.0,42,0.00,,---,0.00,VWS V14.01,2013-03-13 16:42:00,
2013-03-13 12:47:00,46.5,26.3,29.82,WNW,300,4.0,5.0,45,0.00,,---,0.00,VWS V14.01,2013-03-13 16:47:00,
2013-03-13 12:52:00,46.7,26.0,29.82,WNW,300,1.0,4.0,44,0.00,,---,0.00,VWS V14.01,2013-03-13 16:52:00,
2013-03-13 12:57:00,46.8,24.4,29.82,WSW,237,4.0,6.0,41,0.00,,---,0.00,VWS V14.01,2013-03-13 16:57:00,
2013-03-13 13:02:00,46.2,25.5,29.82,WNW,283,0.0,1.0,44,0.00,,---,0.00,VWS V14.01,2013-03-13 17:02:00,
2013-03-13 13:07:00,46.5,24.1,29.82,SSW,195,4.0,5.0,41,0.00,,---,0.00,VWS V14.01,2013-03-13 17:07:00,
2013-03-13 13:12:00,47.1,24.6,29.82,NW,316,3.0,4.0,41,0.00,,---,0.00,VWS V14.01,2013-03-13 17:12:00,
2013-03-13 13:17:00,47.3,23.6,29.81,WSW,245,3.0,8.0,39,0.00,,---,0.00,VWS V14.01,2013-03-13 17:17:00,
2013-03-13 13:22:00,47.3,24.8,29.82,NW,320,0.0,4.0,41,0.00,,---,0.00,VWS V14.01,2013-03-13 17:22:00,
2013-03-13 13:27:00,47.3,24.8,29.81,West,276,0.0,3.0,41,0.00,,---,0.00,VWS V14.01,2013-03-13 17:27:00,
2013-03-13 13:32:00,47.6,24.5,29.81,WSW,254,3.0,4.0,40,0.00,,---,0.00,VWS V14.01,2013-03-13 17:32:00,
2013-03-13 13:37:00,47.4,24.9,29.81,WNW,292,0.0,5.0,41,0.00,,---,0.00,VWS V14.01,2013-03-13 17:37:00,
2013-03-13 13:42:00,47.4,24.9,29.81,NW,315,2.0,3.0,41,0.00,,---,0.00,VWS V14.01,2013-03-13 17:42:00,
2013-03-13 13:47:00,47.3,24.2,29.80,NW,307,2.0,5.0,40,0.00,,---,0.00,VWS V14.01,2013-03-13 17:47:00,
2013-03-13 13:52:00,47.4,24.9,29.80,West,274,0.0,4.0,41,0.00,,---,0.00,VWS V14.01,2013-03-13 17:52:00,
2013-03-13 13:57:00,47.6,25.1,29.79,WNW,288,3.0,4.0,41,0.00,,---,0.00,VWS V14.01,2013-03-13 17:57:00,
2013-03-13 14:02:00,48.2,25.6,29.79,WSW,255,0.0,2.0,41,0.00,,---,0.00,VWS V14.01,2013-03-13 18:02:00,
2013-03-13 14:08:00,48.8,24.3,29.79,WSW,238,4.0,6.0,38,0.00,,---,0.00,VWS V14.01,2013-03-13 18:08:00,
2013-03-13 14:13:00,48.2,24.4,29.79,WNW,300,3.0,5.0,39,0.00,,---,0.00,VWS V14.01,2013-03-13 18:13:00,
2013-03-13 14:18:00,47.9,24.1,29.79,WSW,237,7.0,7.0,39,0.00,,---,0.00,VWS V14.01,2013-03-13 18:18:00,
2013-03-13 14:23:00,47.9,25.4,29.79,NW,311,2.0,5.0,41,0.00,,---,0.00,VWS V14.01,2013-03-13 18:23:00,
2013-03-13 14:28:00,47.9,24.1,29.79,SW,217,6.0,7.0,39,0.00,,---,0.00,VWS V14.01,2013-03-13 18:28:00,
2013-03-13 14:33:00,47.4,24.9,29.78,SW,232,3.0,7.0,41,0.00,,---,0.00,VWS V14.01,2013-03-13 18:33:00,
2013-03-13 14:39:00,48.0,24.9,29.78,West,273,5.0,6.0,40,0.00,,---,0.00,VWS V14.01,2013-03-13 18:39:00,
2013-03-13 14:44:00,48.0,26.0,29.78,WNW,284,3.0,3.0,42,0.00,,---,0.00,VWS V14.01,2013-03-13 18:44:00,
2013-03-13 14:49:00,48.2,25.0,29.78,NNW,348,3.0,5.0,40,0.00,,---,0.00,VWS V14.01,2013-03-13 18:49:00,
2013-03-13 14:54:00,48.8,25.0,29.77,SW,230,1.0,4.0,39,0.00,,---,0.00,VWS V14.01,2013-03-13 18:54:00,
2013-03-13 14:59:00,48.8,22.4,29.77,WSW,242,3.0,6.0,35,0.00,,---,0.00,VWS V14.01,2013-03-13 18:59:00,
2013-03-13 15:04:00,47.9,22.9,29.77,West,273,2.0,5.0,37,0.00,,---,0.00,VWS V14.01,2013-03-13 19:04:00,
2013-03-13 15:09:00,48.0,23.0,29.77,WNW,290,2.0,4.0,37,0.00,,---,0.00,VWS V14.01,2013-03-13 19:09:00,
2013-03-13 15:15:00,48.9,23.1,29.77,West,271,3.0,7.0,36,0.00,,---,0.00,VWS V14.01,2013-03-13 19:15:00,
2013-03-13 15:20:00,49.2,21.3,29.77,North,11,2.0,6.0,33,0.00,,---,0.00,VWS V14.01,2013-03-13 19:20:00,
2013-03-13 15:25:00,49.2,22.7,29.77,SW,216,6.0,7.0,35,0.00,,---,0.00,VWS V14.01,2013-03-13 19:25:00,
2013-03-13 15:30:00,48.5,20.7,29.77,SW,217,5.0,7.0,33,0.00,,---,0.00,VWS V14.01,2013-03-13 19:30:00,
2013-03-13 15:35:00,47.1,20.9,29.77,WSW,255,5.0,8.0,35,0.00,,---,0.00,VWS V14.01,2013-03-13 19:35:00,
2013-03-13 15:40:00,46.2,20.1,29.77,WSW,246,3.0,7.0,35,0.00,,---,0.00,VWS V14.01,2013-03-13 19:40:00,
2013-03-13 15:45:00,46.0,19.9,29.77,West,275,6.0,7.0,35,0.00,,---,0.00,VWS V14.01,2013-03-13 19:45:00,
2013-03-13 15:51:00,45.8,21.0,29.77,WNW,296,4.0,6.0,37,0.00,,---,0.00,VWS V14.01,2013-03-13 19:51:00,
2013-03-13 15:57:00,45.7,20.9,29.77,SW,229,4.0,7.0,37,0.00,,---,0.00,VWS V14.01,2013-03-13 19:57:00,
2013-03-13 16:02:00,46.0,21.8,29.77,WSW,253,3.0,4.0,38,0.00,,---,0.00,VWS V14.01,2013-03-13 20:02:00,
2013-03-13 16:07:00,46.4,20.2,29.77,SW,222,3.0,10.0,35,0.00,,---,0.00,VWS V14.01,2013-03-13 20:07:00,
2013-03-13 16:12:00,46.4,20.2,29.77,WNW,303,4.0,5.0,35,0.00,,---,0.00,VWS V14.01,2013-03-13 20:12:00,
2013-03-13 16:17:00,46.4,19.6,29.77,SW,236,2.0,5.0,34,0.00,,---,0.00,VWS V14.01,2013-03-13 20:17:00,
2013-03-13 16:23:00,46.2,19.4,29.77,WSW,255,7.0,7.0,34,0.00,,---,0.00,VWS V14.01,2013-03-13 20:23:00,
2013-03-13 16:28:00,46.2,19.4,29.77,WNW,294,5.0,6.0,34,0.00,,---,0.00,VWS V14.01,2013-03-13 20:28:00,
2013-03-13 16:33:00,46.5,19.7,29.77,SW,221,3.0,5.0,34,0.00,,---,0.00,VWS V14.01,2013-03-13 20:33:00,
2013-03-13 16:38:00,46.5,20.3,29.77,SW,236,6.0,6.0,35,0.00,,---,0.00,VWS V14.01,2013-03-13 20:38:00,
2013-03-13 16:43:00,46.4,20.2,29.77,WNW,300,5.0,5.0,35,0.00,,---,0.00,VWS V14.01,2013-03-13 20:43:00,
2013-03-13 16:48:00,46.5,21.0,29.77,WSW,250,0.0,3.0,36,0.00,,---,0.00,VWS V14.01,2013-03-13 20:48:00,
2013-03-13 16:53:00,46.4,19.6,29.78,WNW,288,2.0,4.0,34,0.00,,---,0.00,VWS V14.01,2013-03-13 20:53:00,
2013-03-13 16:58:00,46.4,20.2,29.78,West,266,1.0,2.0,35,0.00,,---,0.00,VWS V14.01,2013-03-13 20:58:00,
2013-03-13 17:04:00,46.8,20.6,29.77,WSW,239,2.0,3.0,35,0.00,,---,0.00,VWS V14.01,2013-03-13 21:04:00,
2013-03-13 17:10:00,47.3,21.7,29.77,WSW,244,2.0,4.0,36,0.00,,---,0.00,VWS V14.01,2013-03-13 21:10:00,
2013-03-13 17:15:00,47.3,20.4,29.77,WSW,238,3.0,3.0,34,0.00,,---,0.00,VWS V14.01,2013-03-13 21:15:00,
2013-03-13 17:20:00,47.0,20.8,29.78,WNW,294,3.0,4.0,35,0.00,,---,0.00,VWS V14.01,2013-03-13 21:20:00,
2013-03-13 17:25:00,46.7,20.5,29.78,West,277,3.0,4.0,35,0.00,,---,0.00,VWS V14.01,2013-03-13 21:25:00,
2013-03-13 17:30:00,46.4,20.9,29.78,NW,308,2.0,4.0,36,0.00,,---,0.00,VWS V14.01,2013-03-13 21:30:00,
2013-03-13 17:35:00,46.5,19.7,29.78,WNW,298,1.0,6.0,34,0.00,,---,0.00,VWS V14.01,2013-03-13 21:35:00,
2013-03-13 17:40:00,47.0,20.1,29.78,SW,217,9.0,9.0,34,0.00,,---,0.00,VWS V14.01,2013-03-13 21:40:00,
2013-03-13 17:47:00,46.8,20.6,29.78,WNW,288,3.0,4.0,35,0.00,,---,0.00,VWS V14.01,2013-03-13 21:47:00,
2013-03-13 17:52:00,46.8,21.3,29.78,SSW,209,7.0,9.0,36,0.00,,---,0.00,VWS V14.01,2013-03-13 21:52:00,
2013-03-13 17:58:00,46.1,20.0,29.78,WSW,245,3.0,6.0,35,0.00,,---,0.00,VWS V14.01,2013-03-13 21:58:00,
2013-03-13 18:04:00,45.4,20.7,29.78,West,273,2.0,2.0,37,0.00,,---,0.00,VWS V14.01,2013-03-13 22:04:00,
2013-03-13 18:09:00,45.1,21.0,29.78,WSW,252,2.0,7.0,38,0.00,,---,0.00,VWS V14.01,2013-03-13 22:09:00,
2013-03-13 18:14:00,44.8,20.8,29.78,West,281,1.0,3.0,38,0.00,,---,0.00,VWS V14.01,2013-03-13 22:14:00,
2013-03-13 18:20:00,44.6,21.2,29.79,WNW,286,0.0,2.0,39,0.00,,---,0.00,VWS V14.01,2013-03-13 22:20:00,
2013-03-13 18:25:00,44.6,21.2,29.79,WSW,256,2.0,3.0,39,0.00,,---,0.00,VWS V14.01,2013-03-13 22:25:00,
2013-03-13 18:32:00,44.3,21.5,29.79,NW,317,2.0,3.0,40,0.00,,---,0.00,VWS V14.01,2013-03-13 22:32:00,
2013-03-13 18:37:00,44.1,22.5,29.79,WNW,287,1.0,3.0,42,0.00,,---,0.00,VWS V14.01,2013-03-13 22:37:00,
2013-03-13 18:42:00,43.9,22.3,29.79,WNW,296,0.0,1.0,42,0.00,,---,0.00,VWS V14.01,2013-03-13 22:42:00,
2013-03-13 18:47:00,43.8,21.1,29.79,WSW,239,0.0,0.0,40,0.00,,---,0.00,VWS V14.01,2013-03-13 22:47:00,
2013-03-13 18:52:00,43.5,20.8,29.79,WSW,239,0.0,3.0,40,0.00,,---,0.00,VWS V14.01,2013-03-13 22:52:00,
2013-03-13 18:57:00,43.3,21.2,29.80,West,276,0.0,3.0,41,0.00,,---,0.00,VWS V14.01,2013-03-13 22:57:00,
2013-03-13 19:03:00,43.2,21.7,29.80,West,275,2.0,3.0,42,0.00,,---,0.00,VWS V14.01,2013-03-13 23:03:00,
2013-03-13 19:08:00,43.1,21.0,29.80,West,275,0.0,0.0,41,0.00,,---,0.00,VWS V14.01,2013-03-13 23:08:00,
2013-03-13 19:13:00,42.9,21.4,29.80,West,268,0.0,2.0,42,0.00,,---,0.00,VWS V14.01,2013-03-13 23:13:00,
2013-03-13 19:19:00,42.8,20.8,29.80,West,268,2.0,2.0,41,0.00,,---,0.00,VWS V14.01,2013-03-13 23:19:00,
2013-03-13 19:24:00,42.8,21.3,29.80,West,277,0.0,0.0,42,0.00,,---,0.00,VWS V14.01,2013-03-13 23:24:00,
2013-03-13 19:29:00,42.6,21.1,29.81,WSW,256,2.0,4.0,42,0.00,,---,0.00,VWS V14.01,2013-03-13 23:29:00,
2013-03-13 19:35:00,42.8,21.9,29.81,WSW,257,4.0,6.0,43,0.00,,---,0.00,VWS V14.01,2013-03-13 23:35:00,
2013-03-13 19:40:00,42.6,23.8,29.82,WNW,283,4.0,6.0,47,0.00,,---,0.00,VWS V14.01,2013-03-13 23:40:00,
2013-03-13 19:47:00,42.2,24.9,29.81,WSW,243,1.0,1.0,50,0.00,,---,0.00,VWS V14.01,2013-03-13 23:47:00,
2013-03-13 19:52:00,41.8,25.0,29.81,WSW,243,0.0,1.0,51,0.00,,---,0.00,VWS V14.01,2013-03-13 23:52:00,
2013-03-13 19:57:00,41.5,25.2,29.81,WSW,243,0.0,0.0,52,0.00,,---,0.00,VWS V14.01,2013-03-13 23:57:00,
2013-03-13 20:02:00,41.2,24.9,29.81,WSW,243,0.0,0.0,52,0.00,,---,0.00,VWS V14.01,2013-03-14 00:02:00,
2013-03-13 20:08:00,40.9,24.6,29.81,WSW,243,1.0,2.0,52,0.00,,---,0.00,VWS V14.01,2013-03-14 00:08:00,
2013-03-13 20:14:00,40.9,24.2,29.81,SW,234,7.0,7.0,51,0.00,,---,0.00,VWS V14.01,2013-03-14 00:14:00,
2013-03-13 20:19:00,41.1,24.4,29.82,West,265,2.0,3.0,51,0.00,,---,0.00,VWS V14.01,2013-03-14 00:19:00,
2013-03-13 20:25:00,40.9,24.2,29.82,WSW,239,2.0,2.0,51,0.00,,---,0.00,VWS V14.01,2013-03-14 00:25:00,
2013-03-13 20:30:00,40.9,24.2,29.82,WSW,254,0.0,4.0,51,0.00,,---,0.00,VWS V14.01,2013-03-14 00:30:00,
2013-03-13 20:36:00,40.6,23.9,29.82,WSW,237,4.0,4.0,51,0.00,,---,0.00,VWS V14.01,2013-03-14 00:36:00,
2013-03-13 20:42:00,40.5,24.3,29.82,NW,315,2.0,4.0,52,0.00,,---,0.00,VWS V14.01,2013-03-14 00:42:00,
2013-03-13 20:47:00,40.3,24.5,29.82,West,263,2.0,4.0,53,0.00,,---,0.00,VWS V14.01,2013-03-14 00:47:00,
2013-03-13 20:52:00,40.2,24.5,29.83,WSW,246,4.0,4.0,53,0.00,,---,0.00,VWS V14.01,2013-03-14 00:52:00,
2013-03-13 20:57:00,40.2,24.5,29.83,West,266,3.0,5.0,53,0.00,,---,0.00,VWS V14.01,2013-03-14 00:57:00,
2013-03-13 21:02:00,40.2,24.9,29.83,West,259,1.0,2.0,54,0.00,,---,0.00,VWS V14.01,2013-03-14 01:02:00,
2013-03-13 21:07:00,40.1,24.8,29.83,SW,224,3.0,5.0,54,0.00,,---,0.00,VWS V14.01,2013-03-14 01:07:00,
2013-03-13 21:13:00,39.9,25.1,29.83,WSW,252,3.0,8.0,55,0.00,,---,0.00,VWS V14.01,2013-03-14 01:13:00,
2013-03-13 21:18:00,39.6,25.2,29.83,West,271,0.0,2.0,56,0.00,,---,0.00,VWS V14.01,2013-03-14 01:18:00,
2013-03-13 21:23:00,39.3,25.4,29.83,WSW,241,3.0,6.0,57,0.00,,---,0.00,VWS V14.01,2013-03-14 01:23:00,
2013-03-13 21:28:00,39.2,25.7,29.83,WSW,253,2.0,4.0,58,0.00,,---,0.00,VWS V14.01,2013-03-14 01:28:00,
2013-03-13 21:33:00,38.9,25.8,29.83,WSW,239,0.0,2.0,59,0.00,,---,0.00,VWS V14.01,2013-03-14 01:33:00,
2013-03-13 21:38:00,38.6,25.5,29.83,WNW,303,0.0,2.0,59,0.00,,---,0.00,VWS V14.01,2013-03-14 01:38:00,
2013-03-13 21:43:00,38.3,26.0,29.83,SW,236,3.0,5.0,61,0.00,,---,0.00,VWS V14.01,2013-03-14 01:43:00,
2013-03-13 21:48:00,38.2,26.0,29.83,West,281,1.0,2.0,61,0.00,,---,0.00,VWS V14.01,2013-03-14 01:48:00,
2013-03-13 21:53:00,37.9,25.7,29.83,West,259,1.0,4.0,61,0.00,,---,0.00,VWS V14.01,2013-03-14 01:53:00,
2013-03-13 21:58:00,37.8,26.0,29.83,WSW,254,0.0,2.0,62,0.00,,---,0.00,VWS V14.01,2013-03-14 01:58:00,
2013-03-13 22:04:00,37.6,25.8,29.83,WSW,254,0.0,2.0,62,0.00,,---,0.00,VWS V14.01,2013-03-14 02:04:00,
2013-03-13 22:09:00,37.3,25.5,29.84,SW,232,4.0,4.0,62,0.00,,---,0.00,VWS V14.01,2013-03-14 02:09:00,
2013-03-13 22:14:00,37.3,25.5,29.84,WSW,250,3.0,4.0,62,0.00,,---,0.00,VWS V14.01,2013-03-14 02:14:00,
2013-03-13 22:19:00,37.2,25.8,29.84,West,260,2.0,3.0,63,0.00,,---,0.00,VWS V14.01,2013-03-14 02:19:00,
2013-03-13 22:24:00,37.0,25.6,29.84,West,260,0.0,0.0,63,0.00,,---,0.00,VWS V14.01,2013-03-14 02:24:00,
2013-03-13 22:29:00,36.9,25.5,29.84,West,274,2.0,3.0,63,0.00,,---,0.00,VWS V14.01,2013-03-14 02:29:00,
2013-03-13 22:34:00,36.8,25.4,29.84,WNW,292,1.0,2.0,63,0.00,,---,0.00,VWS V14.01,2013-03-14 02:34:00,
2013-03-13 22:39:00,36.6,25.6,29.84,WNW,292,0.0,1.0,64,0.00,,---,0.00,VWS V14.01,2013-03-14 02:39:00,
2013-03-13 22:44:00,36.5,25.5,29.84,West,277,1.0,1.0,64,0.00,,---,0.00,VWS V14.01,2013-03-14 02:44:00,
2013-03-13 22:49:00,36.3,25.3,29.84,West,277,0.0,0.0,64,0.00,,---,0.00,VWS V14.01,2013-03-14 02:49:00,
2013-03-13 22:54:00,36.2,25.6,29.84,NW,306,0.0,0.0,65,0.00,,---,0.00,VWS V14.01,2013-03-14 02:54:00,
2013-03-13 23:00:00,36.0,25.4,29.84,NW,306,0.0,2.0,65,0.00,,---,0.00,VWS V14.01,2013-03-14 03:00:00,
2013-03-13 23:05:00,35.9,25.3,29.84,WNW,289,0.0,0.0,65,0.00,,---,0.00,VWS V14.01,2013-03-14 03:05:00,
2013-03-13 23:10:00,35.8,25.6,29.84,WNW,289,0.0,0.0,66,0.00,,---,0.00,VWS V14.01,2013-03-14 03:10:00,
2013-03-13 23:16:00,35.5,25.3,29.84,WNW,289,0.0,1.0,66,0.00,,---,0.00,VWS V14.01,2013-03-14 03:16:00,
2013-03-13 23:22:00,35.5,25.3,29.84,WSW,240,0.0,0.0,66,0.00,,---,0.00,VWS V14.01,2013-03-14 03:22:00,
2013-03-13 23:27:00,35.3,25.1,29.84,WSW,240,0.0,1.0,66,0.00,,---,0.00,VWS V14.01,2013-03-14 03:27:00,
2013-03-13 23:33:00,35.2,25.0,29.84,West,269,0.0,1.0,66,0.00,,---,0.00,VWS V14.01,2013-03-14 03:33:00,
2013-03-13 23:38:00,35.2,25.0,29.84,West,269,1.0,1.0,66,0.00,,---,0.00,VWS V14.01,2013-03-14 03:38:00,
2013-03-13 23:44:00,35.0,24.8,29.84,WSW,249,0.0,0.0,66,0.00,,---,0.00,VWS V14.01,2013-03-14 03:44:00,
2013-03-13 23:49:00,35.0,24.8,29.84,WSW,241,0.0,2.0,66,0.00,,---,0.00,VWS V14.01,2013-03-14 03:49:00,
2013-03-13 23:54:00,34.9,24.7,29.84,WSW,241,2.0,3.0,66,0.00,,---,0.00,VWS V14.01,2013-03-14 03:54:00,